[TLELIST] Archives

 

[list_settings.list_name] Current TLEs

February 1st 2022 PST

HST 1 20580U 90037B 22031.58477748 .00002039 00000-0 11151-3 0 9998 2 20580 28.4714 355.2860 0002529 5.7754 150.1387 15.09987908545777 ISS (ZARYA) 1 25544U 98067A 22032.20725753 .00005492 00000-0 10513-3 0 9993 2 25544 51.6448 289.9951 0006763 85.5907 19.0087 15.49721935324098 CXO 1 25867U 99040B 22033.18385612 .00000454 00000-0 00000-0 0 9997 2 25867 49.0661 243.9851 8652576 229.6629 0.6497 0.37808220 11281 ____________________________________________________________________ These 2-Line ...Continue Reading

[list_settings.list_name] Current TLEs

January 31st 2022 PST

HST 1 20580U 90037B 22030.66274237 .00001656 00000-0 88521-4 0 9994 2 20580 28.4714 1.3898 0002501 355.8523 177.9881 15.09983001545361 ISS (ZARYA) 1 25544U 98067A 22031.24689181 .00006117 00000-0 11619-3 0 9993 2 25544 51.6445 294.7497 0006839 81.4174 61.7898 15.49712814323942 CXO 1 25867U 99040B 22033.18385612 .00000454 00000-0 00000-0 0 9997 2 25867 49.0661 243.9851 8652576 229.6629 0.6497 0.37808220 11281 ____________________________________________________________________ These 2-Line ...Continue Reading

[list_settings.list_name] Current TLEs

January 30th 2022 PST

HST 1 20580U 90037B 22029.67015859 .00001481 00000-0 77988-4 0 9997 2 20580 28.4714 7.9604 0002467 344.8569 182.6671 15.09979485545212 ISS (ZARYA) 1 25544U 98067A 22030.28011779 .00006214 00000-0 11796-3 0 9992 2 25544 51.6444 299.5410 0006738 77.3900 68.6782 15.49700702323792 CXO 1 25867U 99040B 22030.53953961 .00000474 00000-0 00000+0 0 9992 2 25867 49.1459 244.1551 8648779 229.5977 0.6010 0.37808864 22436 ____________________________________________________________________ These 2-Line ...Continue Reading

[list_settings.list_name] Current TLEs

January 29th 2022 PST

HST 1 20580U 90037B 22029.24637654 .00001425 00000-0 74623-4 0 9994 2 20580 28.4714 10.7658 0002445 340.0906 39.2184 15.09978112545416 ISS (ZARYA) 1 25544U 98067A 22029.24068649 .00022809 00000-0 41054-3 0 9992 2 25544 51.6444 304.6843 0006900 69.5759 33.7851 15.49698422323634 CXO 1 25867U 99040B 22030.53953961 .00000474 00000-0 00000+0 0 9992 2 25867 49.1459 244.1551 8648779 229.5977 0.6010 0.37808864 22436 ____________________________________________________________________ These 2-Line ...Continue Reading

[list_settings.list_name] Current TLEs

January 28th 2022 PST

HST 1 20580U 90037B 22027.68628769 .00001237 00000-0 63361-4 0 9995 2 20580 28.4714 21.0932 0002401 322.2498 199.7319 15.09973141544919 ISS (ZARYA) 1 25544U 98067A 22028.21808647 .00007418 00000-0 13935-3 0 9994 2 25544 51.6438 309.7475 0006790 70.1663 84.4979 15.49675244323476 CXO 1 25867U 99040B 22030.53953961 .00000474 00000-0 00000+0 0 9992 2 25867 49.1459 244.1551 8648779 229.5977 0.6010 0.37808864 22436 ____________________________________________________________________ These 2-Line ...Continue Reading

[list_settings.list_name] Current TLEs

January 27th 2022 PST

HST 1 20580U 90037B 22026.69401616 .00001265 00000-0 65016-4 0 9995 2 20580 28.4714 27.6618 0002371 310.7798 206.6171 15.09971052544769 ISS (ZARYA) 1 25544U 98067A 22027.09835009 .00008059 00000-0 15076-3 0 9991 2 25544 51.6452 315.2942 0006921 65.2544 318.5018 15.49659889323306 CXO 1 25867U 99040B 22027.89869729 .00000461 00000-0 00000-0 0 9992 2 25867 49.2257 244.3056 8644010 229.5559 1.0148 0.37804870 11264 ____________________________________________________________________ These 2-Line ...Continue Reading

[list_settings.list_name] Current TLEs

January 26th 2022 PST

HST 1 20580U 90037B 22026.21906907 .00001305 00000-0 67461-4 0 9997 2 20580 28.4713 30.8059 0002357 305.1698 145.3448 15.09970141544959 ISS (ZARYA) 1 25544U 98067A 22026.34665047 .00028750 00000-0 51555-3 0 9993 2 25544 51.6453 319.0141 0006939 59.3047 88.1481 15.49666716323188 CXO 1 25867U 99040B 22027.89869729 .00000461 00000-0 00000-0 0 9992 2 25867 49.2257 244.3056 8644010 229.5559 1.0148 0.37804870 11264 ____________________________________________________________________ These 2-Line ...Continue Reading

[list_settings.list_name] Current TLEs

January 25th 2022 PST

HST 1 20580U 90037B 22024.50840557 .00001221 00000-0 62432-4 0 9995 2 20580 28.4712 42.1300 0002330 285.0338 208.0692 15.09965616544703 ISS (ZARYA) 1 25544U 98067A 22025.31269299 .00022713 00000-0 40962-3 0 9991 2 25544 51.6443 324.1356 0006738 58.7694 76.7354 15.49645740323029 CXO 1 25867U 99040B 22027.89444657 .00000461 00000-0 00000-0 0 9991 2 25867 49.2259 244.3057 8644000 229.5561 0.4354 0.37805100 11268 ____________________________________________________________________ These 2-Line ...Continue Reading

[list_settings.list_name] Current TLEs

January 24th 2022 PST

HST 1 20580U 90037B 22023.78730294 .00001297 00000-0 66970-4 0 9994 2 20580 28.4712 46.9034 0002334 276.4749 249.0314 15.09964258544328 ISS (ZARYA) 1 25544U 98067A 22024.46959583 .00005654 00000-0 10839-3 0 9993 2 25544 51.6445 328.3082 0006842 57.4089 51.6405 15.49611941322892 CXO 1 25867U 99040B 22025.25042433 .00000519 00000-0 00000-0 0 9999 2 25867 49.3006 244.4556 8643178 229.5149 0.4252 0.37813136 11255 ____________________________________________________________________ These 2-Line ...Continue Reading

[list_settings.list_name] Current TLEs

January 23rd 2022 PST

HST 1 20580U 90037B 22022.38444720 .00001405 00000-0 73502-4 0 9995 2 20580 28.4711 56.1899 0002342 259.7450 184.9017 15.09961140544112 ISS (ZARYA) 1 25544U 98067A 22023.43394828 .00005681 00000-0 10891-3 0 9992 2 25544 51.6448 333.4348 0006763 53.9549 33.8368 15.49599208322735 CXO 1 25867U 99040B 22025.25042433 .00000519 00000-0 00000-0 0 9999 2 25867 49.3006 244.4556 8643178 229.5149 0.4252 0.37813136 11255 ____________________________________________________________________ These 2-Line ...Continue Reading
  • This mailing list is a public mailing list - anyone may join or leave, at any time.
  • This mailing list is announce-only.

International Space Station (ISS) / Hubble Space Telescope (HST) / Chandra X-Ray Observatory Orbital Data via EMAIL

Privacy Policy:

Private list